CW0630 Weather Reports


time (UTC)temp
C
wind
direction
speed
KPH
gust
KPH
rain 1hr
cm
rain 24hr
cm
rain mn
cm
humidity
%
barometer
mb
20260906091023 21 360 0.0 0.0 0.00 0.91 0.00 96 1012.4
20260906081055 22 340 0.0 0.0 0.00 0.91 0.00 96 1012.2
20260906071015 22 344 0.0 0.0 0.00 0.91 0.00 96 1011.9
20260906061020 22 350 0.0 0.0 0.00 0.91 0.00 96 1012.3
20260906051027 22 360 0.0 0.0 0.00 0.91 0.00 96 1012.5
20260906041036 22 312 0.0 0.0 0.00 0.91 0.00 96 1012.6
20260906031023 22 312 0.0 0.0 0.00 0.91 0.91 95 1012.4
20260906021030 22 312 0.0 0.0 0.00 0.91 0.91 94 1012.5
20260906011018 23 312 0.0 0.0 0.00 0.91 0.91 93 1012.1
20260906001024 23 312 0.0 0.0 0.00 0.91 0.91 92 1011.3
20260905231040 23 292 0.0 0.0 0.00 0.97 0.91 90 1010.9
20260905221028 24 254 0.0 0.0 0.00 1.57 0.91 88 1010.8
20260905211019 25 248 0.0 0.0 0.00 1.57 0.91 85 1011.0
20260905201017 24 213 0.0 0.0 0.00 1.57 0.91 87 1010.8
20260905191030 24 141 0.0 0.0 0.10 1.57 0.91 91 1011.8
20260905181026 24 128 0.0 0.0 0.00 1.47 0.81 90 1011.9
20260905171028 22 319 0.0 0.0 0.79 1.47 0.81 92 1012.6
20260905161019 26 32 0.0 0.0 0.00 0.69 0.03 84 1013.1
20260905151032 27 321 0.0 3.2 0.00 0.69 0.03 78 1012.7
20260905141043 28 58 0.0 0.0 0.00 0.69 0.03 75 1012.4
20260905131019 25 75 0.0 0.0 0.00 0.69 0.03 85 1011.9
20260905121016 23 234 0.0 1.6 0.00 0.69 0.03 96 1012.0
20260905111013 21 234 0.0 0.0 0.03 0.69 0.03 96 1011.7
20260905101024 21 234 0.0 0.0 0.00 0.66 0.00 96 1011.3